DELTA 1 DEB, 7075

Orbit data source: Space-Track

DELTA 1 DEB, 7075 is space debris in SSO originally from a launch on Tue, 06 Nov 1973 UTC launched from the Air Force Western Test Range (AFWTR). Debris objects in space refer to the collection of defunct objects orbiting the Earth. Examples of debris include non-operational satellites, rocket bodies, and fragments generated from explosions, collisions, or faulty payload assembly.

Loading next visibility...
Identifier
7075, 1973-086BT
Orbit
SSO
Country
Flag of USUS
Related business
Manufacturer
Unknown
Mission
Spacecraft
Bus & Motor
Unknown
Mass
Unknown
Launch date (UTC)
1973-11-06 (52 years ago)
Launch vehicle
Unknown
Launch site
Air Force Western Test Range (AFWTR)
Object type
Payload
Rocket body
Debris
Shape & HBR
Unknown shape, 0.1 m
Radar Cross Section
Medium (>0.1 m² and <1 m²)

Expand to show TLE details & history
Last TLE update: 12 hours ago

TLE from 12 hours ago
0 DELTA 1 DEB
1  7075U 73086BT  25353.61492498  .00002339  00000-0  75588-2 0  9996
2  7075 101.6023 243.2198 0166697 336.3893  52.9016 12.98886071442703
Epoch: 2025-12-19T14:45Z
TLE epoch observation values (Epoch: 2025-12-19T14:45:29.518Z)
Latitude
30.18918°
Longitude
-73.43169°
Altitude
1,194.508 km
Speed
7.295 km/s
True Right ascension
15h 45m 34s
True Declination
30° 02' 55"
Sunlit
Object was in daylight at epoch
Visualization orbit readout
Latitude
Unknown
Longitude
Unknown
Altitude
Unknown
Speed
Unknown
Apparent Right ascension
Unknown
Apparent Declination
Unknown
Sunlit
N/A
Visualization observer readout
Local Sidereal Time
01:49:31
Azimuth
Unknown
Elevation
Unknown
Doppler factor
Unknown
Orbital elements
Apogee altitude
1,391.322 km
Perigee altitude
1,136.54 km
Semi-major axis
7,642.068 km
Eccentricity
0.01667
Inclination
101.6023°
RAAN
243.2198°
Arg. of periapsis
336.3893°
True anomaly
54.44438°
Mean anomaly
52.9016°
Eccentric anomaly
53.67106°
Mean motion
3.24883 °/min
Orbital period
110.81 mins
BSTAR
0.0075588
Loading maneuver chart data...
Computing Atmospheric mass density...
Loading historical data...
Loading historical data...
Loading historical data...
Loading historical data...
Loading historical data...
Loading historical data...
Loading historical data...

Documentation

Showing up to 5 results
|